Dewpoint
58 53 51 47 37 31 30 31 33 38 41 37 44 48 50 55 52 46 64 69 70 70 73 76 76 76 74 74 74 74 73 72 71 72 71 70 70 70 70 72 72 72 71 69 69 69 69 70 70
56 50 48 41 30 28 30 33 32 33 33 46 48 47 49 52 61 63 64 69 71 71 74 75 77 76 75 74 74 74 73 72 72 72 71 71 71 70 69 71 72 72 71 69 69 69 69 69 69
52 46 40 36 30 29 31 33 32 31 31 34 49 53 54 54 62 63 64 69 72 73 74 74 77 76 76 75 74 74 73 73 72 73 72 72 71 70 69 70 72 72 71 69 69 68 69 69 69
44 44 36 26 24 27 32 30 31 29 31 39 50 54 57 60 61 64 68 71 72 72 73 75 77 76 76 75 74 74 74 73 72 73 73 73 72 71 70 70 72 71 71 69 68 68 68 67 67
44 38 31 30 27 28 28 30 31 30 32 35 54 54 57 60 64 67 70 71 71 72 73 75 77 76 76 75 74 74 73 73 73 72 74 73 73 72 71 70 71 71 71 70 68 67 67 67 67
40 33 27 25 26 26 28 30 31 33 30 30 49 55 57 60 63 65 70 70 71 72 73 74 76 76 76 75 74 73 73 72 74 73 73 73 73 73 72 71 70 71 72 70 69 68 67 66 67
36 32 26 30 26 26 30 31 28 31 32 29 36 53 55 54 62 63 68 68 70 72 72 73 74 75 76 75 75 74 74 73 74 74 73 74 73 74 72 72 71 70 71 71 70 69 67 66 67
39 31 29 29 28 27 30 30 34 32 32 32 47 50 49 54 58 62 61 67 69 70 71 72 73 74 74 74 75 75 75 74 75 74 74 74 74 74 73 72 72 71 71 71 71 70 68 67 66
38 27 24 28 29 29 30 29 31 35 31 31 30 32 46 47 61 60 58 59 67 69 70 72 72 74 73 73 73 74 75 74 74 74 73 73 72 71 72 72 72 72 71 71 70 70 69 69 68
35 25 24 32 29 28 30 33 33 32 31 31 30 31 32 33 43 59 59 58 61 67 69 71 72 72 72 74 72 72 72 72 72 72 72 71 70 69 71 72 72 72 71 71 71 71 70 70 66
35 29 32 35 36 36 34 34 35 32 31 31 30 30 32 31 31 30 30 35 48 51 59 69 71 72 72 72 70 71 71 71 71 70 70 70 70 68 69 69 70 70 71 69 70 69 68 66 65
32 34 35 36 37 35 33 35 33 34 33 34 34 33 33 31 31 31 39 43 49 53 55 59 65 70 71 71 69 70 69 70 70 71 69 69 69 67 67 67 67 69 68 68 67 67 66 65 65
32 33 34 35 36 35 35 34 34 34 34 34 34 33 33 33 32 39 46 51 52 53 55 57 59 61 66 68 67 67 69 69 69 70 70 69 69 68 67 66 66 68 68 68 67 66 65 64 64
34 35 35 35 34 35 33 33 33 32 31 29 30 30 32 39 34 45 50 52 53 54 55 56 58 59 59 60 62 65 66 67 68 68 69 69 69 68 66 65 65 66 67 67 65 65 65 64 63
36 32 32 31 32 32 34 29 31 31 29 28 28 29 43 48 50 51 52 52 52 53 52 52 54 57 58 58 59 60 65 66 67 67 68 67 68 66 65 65 65 65 66 66 65 64 64 63 62
32 30 28 30 31 29 30 27 30 29 29 29 29 31 47 47 48 48 48 46 44 44 46 46 49 51 55 58 58 59 60 63 68 67 67 67 66 66 65 65 65 66 66 66 65 64 63 62 61
31 28 30 30 31 30 28 27 29 30 29 26 31 34 45 42 38 37 37 38 37 39 40 40 43 43 49 55 57 58 58 58 60 62 64 66 66 66 66 65 65 65 66 66 65 64 63 62 62
30 31 32 29 30 29 28 28 29 29 28 30 41 41 33 25 25 25 26 28 30 30 31 32 34 37 42 47 51 57 57 58 58 59 60 62 63 65 66 66 65 64 65 65 64 63 63 62 62
34 33 29 29 29 24 27 26 26 26 32 38 34 26 22 22 24 26 27 30 32 33 33 33 34 34 36 39 43 52 53 56 57 58 59 59 61 63 65 66 65 65 64 64 64 63 62 62 61
23 24 23 25 25 20 22 21 24 25 23 26 22 22 24 29 32 34 34 34 35 35 35 35 36 36 36 37 40 52 53 55 56 57 57 58 60 62 64 65 64 64 64 63 63 63 62 61 60
22 19 20 19 22 23 21 19 23 22 20 23 26 27 29 30 32 35 37 37 38 39 39 39 39 39 39 36 39 45 49 54 54 55 56 57 59 61 62 64 64 64 63 62 63 63 61 59 60
19 21 22 18 16 13 17 12 18 20 18 23 27 29 30 31 33 34 37 38 39 41 42 41 40 39 39 38 37 42 47 48 50 54 57 58 59 61 61 63 64 63 63 62 62 62 61 60 58
19 22 20 19 16 19 17 17 18 23 19 20 27 28 29 30 32 33 35 38 40 39 39 41 41 40 41 40 37 41 45 48 50 53 55 56 59 62 61 61 62 63 62 61 62 61 60 60 59
21 17 17 18 19 11 16 16 15 19 23 21 26 28 29 30 32 34 36 36 35 37 37 38 39 40 40 41 40 38 43 47 49 51 54 57 59 60 61 61 62 62 60 60 61 60 59 60 60
19 15 12 5 2 -0 17 15 15 22 25 26 26 27 29 31 32 35 36 34 35 37 37 37 38 39 40 41 42 42 45 48 50 52 54 54 58 58 60 60 60 59 60 60 60 60 59 59 59
18 15 11 9 10 6 13 13 18 23 28 29 29 29 31 30 32 34 36 35 35 37 38 38 39 39 40 42 44 45 47 49 50 52 53 55 59 58 59 60 60 60 61 61 60 60 60 59 58
18 16 18 16 16 13 15 16 22 27 29 29 28 29 26 25 27 31 33 31 34 35 36 36 38 38 39 42 43 43 44 45 47 50 53 54 58 58 58 60 60 61 61 61 60 59 58 58 57
18 20 14 15 5 10 12 9 10 24 28 27 29 27 26 25 25 29 30 30 33 36 36 37 38 39 39 40 41 40 42 42 45 49 51 53 55 58 58 60 60 62 61 60 59 58 58 56 56
21 18 18 17 16 6 6 6 20 16 16 18 23 27 25 24 24 27 29 29 31 36 37 37 37 37 38 38 39 40 41 42 44 47 50 51 53 57 58 59 59 60 58 58 58 57 57 56 55
24 20 18 16 9 14 12 12 15 16 26 26 26 28 29 27 24 26 29 28 28 33 37 36 35 36 37 38 38 39 40 41 43 45 49 51 53 56 57 59 58 59 58 57 57 57 56 55 54
Lifted_Index
8 8 8 7 5 4 4 4 3 3 2 2 2 1 1 -0 -0 -1 -1 -2 -3 -3 -4 -5 -6 -5 -5 -4 -4 -4 -4 -3 -3 -3 -2 -2 -2 -1 -1 -2 -2 -2 -1 -1 -0 -0 -1 -1 -1
8 8 8 7 5 4 4 4 4 3 3 2 2 1 1 -0 -1 -1 -1 -2 -3 -3 -4 -5 -6 -5 -5 -4 -4 -4 -4 -3 -3 -3 -3 -2 -2 -1 -1 -2 -2 -2 -1 -1 -0 -0 -1 -1 -1
9 9 8 6 5 4 4 5 4 4 4 3 2 1 0 -0 -1 -1 -1 -2 -3 -4 -5 -5 -6 -5 -5 -4 -4 -4 -4 -3 -3 -3 -3 -3 -3 -2 -1 -2 -2 -2 -2 -1 -0 -0 -0 -0 -0
9 8 7 6 5 5 5 5 5 5 5 4 2 1 -0 -1 -1 -1 -2 -3 -4 -4 -5 -5 -6 -6 -5 -5 -4 -4 -4 -3 -3 -3 -4 -4 -3 -2 -2 -2 -2 -2 -2 -1 -0 -0 -0 -0 -0
9 8 6 5 5 6 6 6 6 6 6 5 3 1 -0 -1 -1 -2 -2 -3 -4 -4 -5 -5 -6 -6 -5 -5 -4 -4 -4 -3 -3 -3 -4 -4 -4 -3 -2 -2 -2 -2 -2 -1 -1 -0 0 -0 -0
8 8 6 5 5 6 7 7 7 8 7 6 4 1 -0 -1 -1 -1 -3 -3 -4 -4 -4 -5 -6 -6 -6 -5 -5 -4 -4 -4 -4 -4 -4 -4 -4 -4 -3 -2 -2 -3 -2 -2 -1 -0 -0 -0 -0
8 7 6 5 5 6 7 8 8 8 8 7 5 2 0 -1 -1 -1 -2 -3 -4 -4 -4 -5 -6 -6 -6 -6 -5 -5 -5 -5 -5 -5 -4 -4 -4 -4 -4 -3 -3 -3 -3 -2 -2 -1 -0 -0 -0
8 7 6 6 6 6 7 8 8 8 8 8 6 4 2 0 -1 -2 -2 -3 -3 -4 -4 -5 -5 -6 -6 -6 -6 -6 -6 -6 -6 -6 -5 -5 -5 -5 -4 -4 -3 -3 -3 -3 -2 -2 -1 -1 -0
8 7 6 6 7 7 8 8 7 8 8 8 7 6 5 2 -1 -2 -2 -2 -3 -4 -4 -5 -5 -6 -6 -6 -6 -6 -6 -6 -6 -6 -6 -5 -5 -4 -4 -4 -4 -4 -3 -3 -3 -3 -2 -1 -1
8 7 6 7 8 8 8 8 7 7 8 8 8 8 6 4 2 1 0 -1 -2 -3 -4 -5 -5 -6 -6 -6 -6 -6 -6 -6 -6 -6 -5 -5 -5 -4 -4 -4 -4 -4 -4 -4 -3 -3 -2 -2 -1
8 7 7 8 8 8 8 8 8 7 7 8 8 8 8 7 6 6 5 3 1 0 -1 -3 -5 -6 -6 -6 -6 -6 -6 -5 -5 -5 -5 -5 -5 -4 -4 -4 -4 -4 -4 -4 -3 -3 -3 -2 -1
7 8 8 8 8 8 8 8 7 7 8 8 8 8 8 8 8 8 8 7 5 4 2 0 -2 -4 -5 -6 -6 -6 -5 -5 -5 -5 -5 -5 -5 -4 -4 -4 -4 -4 -4 -4 -3 -3 -2 -2 -1
8 8 8 8 8 8 8 7 7 7 8 8 8 8 8 8 8 8 8 7 7 6 5 3 1 -1 -3 -4 -4 -5 -5 -5 -5 -5 -4 -4 -4 -4 -4 -4 -4 -4 -4 -3 -3 -2 -2 -2 -1
8 7 7 8 7 7 7 7 7 7 7 8 8 8 8 8 7 7 7 6 6 6 6 5 4 2 0 -1 -2 -3 -4 -4 -4 -4 -4 -4 -4 -4 -4 -4 -3 -3 -3 -3 -3 -2 -2 -1 -1
7 7 6 7 7 7 6 6 7 7 8 8 8 8 7 7 7 7 6 6 6 6 6 6 5 5 3 2 0 -1 -2 -3 -4 -4 -4 -4 -4 -4 -4 -4 -3 -2 -2 -2 -2 -2 -2 -1 -1
6 5 5 6 7 7 7 6 7 8 8 8 8 8 8 7 7 7 6 6 7 7 7 7 6 6 5 4 4 3 1 -0 -2 -3 -4 -4 -4 -4 -4 -3 -3 -2 -2 -2 -2 -2 -1 -1 -1
5 4 4 5 7 7 7 6 7 8 9 9 9 9 8 8 7 7 7 7 7 7 7 7 7 7 6 6 5 5 4 3 1 -1 -2 -3 -4 -4 -4 -4 -3 -3 -3 -2 -2 -2 -2 -1 -1
4 4 4 5 7 7 6 7 8 10 10 10 10 9 9 8 8 7 7 7 8 8 8 8 8 7 7 6 6 5 5 5 4 2 0 -2 -3 -3 -3 -4 -4 -3 -3 -2 -2 -2 -2 -1 -1
5 5 5 6 8 8 7 7 9 10 10 10 10 10 10 9 9 8 8 8 9 9 10 10 10 9 8 7 6 6 5 5 4 3 2 0 -1 -2 -3 -4 -4 -4 -3 -2 -2 -2 -1 -1 -1
6 5 5 7 9 9 8 8 9 10 10 10 11 10 10 9 9 9 9 9 10 10 10 11 11 11 11 9 7 6 5 4 3 3 2 1 -0 -1 -2 -3 -4 -4 -3 -3 -2 -1 -1 -1 -1
6 6 6 7 8 9 8 7 8 10 11 11 11 10 10 10 9 9 10 10 11 10 10 10 10 10 10 10 8 7 5 4 3 2 1 0 -0 -1 -2 -3 -3 -4 -3 -3 -2 -1 -1 -1 -1
7 8 8 7 7 7 7 6 7 10 11 11 11 11 10 10 10 10 10 10 10 9 9 8 8 7 7 7 7 6 5 4 3 2 0 -1 -1 -2 -2 -2 -3 -3 -4 -3 -3 -2 -1 -1 -1
8 10 9 8 6 6 6 5 7 9 11 10 11 11 10 10 9 10 9 9 8 8 7 7 6 6 5 5 5 5 4 4 3 2 0 -1 -2 -3 -3 -3 -3 -4 -4 -4 -3 -2 -2 -1 -1
10 10 8 7 6 5 6 7 7 9 10 10 10 9 9 8 8 8 8 8 7 7 6 6 5 5 4 4 4 3 4 4 3 2 0 -1 -3 -3 -3 -3 -4 -4 -4 -3 -3 -2 -2 -1 -1
11 9 6 4 3 4 7 8 8 9 9 8 8 7 7 7 7 7 6 6 6 5 5 5 4 4 4 4 3 3 4 4 4 2 -0 -2 -2 -3 -3 -4 -4 -4 -4 -3 -3 -2 -1 -1 -1
11 10 7 4 3 5 7 8 8 8 7 6 6 5 5 5 5 5 5 4 4 4 4 4 4 5 5 5 4 4 5 5 4 2 0 -1 -2 -2 -3 -4 -5 -4 -4 -3 -2 -2 -1 -1 -0
12 11 9 7 5 5 6 7 7 6 5 4 4 4 4 4 4 4 3 3 3 3 3 3 4 5 6 6 6 7 7 7 5 3 1 -0 -1 -2 -3 -4 -4 -4 -3 -3 -2 -2 -1 -0 0
11 10 9 7 5 3 4 5 6 5 4 4 3 3 3 3 2 2 2 2 3 3 3 3 4 6 7 7 8 8 8 8 6 4 2 1 -1 -2 -3 -3 -4 -4 -3 -3 -2 -1 -0 0 1
10 9 8 6 5 3 3 4 5 5 4 4 3 3 2 1 1 1 1 2 2 3 3 3 4 6 7 7 8 9 9 8 6 4 2 1 0 -1 -2 -3 -3 -3 -3 -2 -2 -1 0 1 1
9 9 7 6 5 4 4 4 5 5 4 4 3 2 1 1 1 1 1 2 2 2 2 3 4 5 6 7 8 9 9 8 6 4 2 2 1 -0 -2 -3 -3 -3 -2 -1 -1 0 1 2 2